Вернуться в каталог

OPS 2644

АктивенВоенныеPO
NORAD 3673·PAYLOAD·🇺🇸 United States

Запущен Feb 5, 1969 с Vandenberg Space Force Base

Loading…

Ближайшие Пролёты (ближайшие 24 часа)

TLE

СвежийSource: Space-Track

Эпоха: Sep 14, 2026, 08:47 UTC

1 03673U 69010B   26257.36663583  .00000111  00000-0  57311-3 0  9990
2 03673  80.3898  96.3807 0024992 260.1233 213.9941 12.63666755654723

Отслеживайте OPS 2644 в реальном времени с AllMySat

Download on the App Store